******************************************************************************* JPL/HORIZONS (2012 VP113) 2024-Apr-19 13:15:36 Rec #:50174546 (+COV) Soln.date: 2021-Dec-03_22:20:25 # obs: 36 (2011-2020) IAU76/J2000 helio. ecliptic osc. elements (au, days, deg., period=Julian yrs): EPOCH= 2457148.5 ! 2015-May-06.00 (TDB) Residual RMS= .11972 EC= .6904742237944498 QR= 80.59804739412114 TP= 2444077.3091800367 OM= 90.84979606902034 W= 294.1965729164442 IN= 24.03276257589287 A= 260.3920370773822 MA= 3.066039036363514 ADIST= 440.1860267606433 PER= 4201.93907 N= .000234565 ANGMOM= .200792727 DAN= 106.19527 DDN= 190.02735 L= 27.0467833 B= -21.8068644 MOID= 79.67569733 TP= 1979-Jul-22.8091800367 Asteroid physical parameters (km, seconds, rotational period in hours): GM= n.a. RAD= n.a. ROTPER= n.a. H= 4.09 G= .150 B-V= n.a. ALBEDO= n.a. STYP= n.a. ASTEROID comments: 1: soln ref.= JPL#9, OCC=4 2: source=ORB ******************************************************************************* ******************************************************************************* Ephemeris / WWW_USER Fri Apr 19 13:15:36 2024 Pasadena, USA / Horizons ******************************************************************************* Target body name: (2012 VP113) {source: JPL#9} Center body name: Earth (399) {source: DE441} Center-site name: GEOCENTRIC ******************************************************************************* Start time : A.D. 1979-Sep-01 00:00:00.0000 UT Stop time : A.D. 1979-Oct-31 00:00:00.0000 UT Step-size : 360 minutes ******************************************************************************* Target pole/equ : undefined Target radii : undefined Center geodetic : 0.0, 0.0, -6378.137 {E-lon(deg),Lat(deg),Alt(km)} Center cylindric: 0.0, 0.0, 0.0 {E-lon(deg),Dxy(km),Dz(km)} Center pole/equ : ITRF93 {East-longitude positive} Center radii : 6378.137, 6378.137, 6356.752 km {Equator_a, b, pole_c} Target primary : Sun Vis. interferer : MOON (R_eq= 1737.400) km {source: DE441} Rel. light bend : Sun {source: DE441} Rel. lght bnd GM: 1.3271E+11 km^3/s^2 Small-body perts: Yes {source: SB441-N16} Atmos refraction: NO (AIRLESS) RA format : HMS Time format : CAL Calendar mode : Mixed Julian/Gregorian EOP file : eop.240418.p240712 EOP coverage : DATA-BASED 1962-JAN-20 TO 2024-APR-18. PREDICTS-> 2024-JUL-11 Units conversion: 1 au= 149597870.700 km, c= 299792.458 km/s, 1 day= 86400.0 s Table cut-offs 1: Elevation (-90.0deg=NO ),Airmass (>38.000=NO), Daylight (NO ) Table cut-offs 2: Solar elongation ( 0.0,180.0=NO ),Local Hour Angle( 0.0=NO ) Table cut-offs 3: RA/DEC angular rate ( 0.0=NO ) ******************************************************************************* Initial IAU76/J2000 heliocentric ecliptic osculating elements (au, days, deg.): EPOCH= 2457148.5 ! 2015-May-06.00 (TDB) Residual RMS= .11972 EC= .6904742237944498 QR= 80.59804739412114 TP= 2444077.3091800367 OM= 90.84979606902034 W= 294.1965729164442 IN= 24.03276257589287 Equivalent ICRF heliocentric cartesian coordinates (au, au/d): X= 5.107264227770901E+01 Y= 6.562902695954129E+01 Z= 3.190921086425595E+00 VX=-1.391499552721412E-03 VY= 1.515753616924026E-03 VZ= 1.319573003643413E-03 Asteroid physical parameters (km, seconds, rotational period in hours): GM= n.a. RAD= n.a. ROTPER= n.a. H= 4.09 G= .150 B-V= n.a. ALBEDO= n.a. STYP= n.a. ******************************************************************************* Date__(UT)__HR:MN r rdot ************************************************** $$SOE 1979-Sep-01 00:00 80.52242305063 -0.0017682 1979-Sep-01 06:00 80.52242279644 -0.0017525 1979-Sep-01 12:00 80.52242254452 -0.0017368 1979-Sep-01 18:00 80.52242229486 -0.0017211 1979-Sep-02 00:00 80.52242204747 -0.0017054 1979-Sep-02 06:00 80.52242180236 -0.0016896 1979-Sep-02 12:00 80.52242155951 -0.0016739 1979-Sep-02 18:00 80.52242131894 -0.0016582 1979-Sep-03 00:00 80.52242108065 -0.0016424 1979-Sep-03 06:00 80.52242084463 -0.0016266 1979-Sep-03 12:00 80.52242061089 -0.0016109 1979-Sep-03 18:00 80.52242037942 -0.0015951 1979-Sep-04 00:00 80.52242015024 -0.0015793 1979-Sep-04 06:00 80.52241992334 -0.0015635 1979-Sep-04 12:00 80.52241969871 -0.0015477 1979-Sep-04 18:00 80.52241947637 -0.0015319 1979-Sep-05 00:00 80.52241925632 -0.0015161 1979-Sep-05 06:00 80.52241903854 -0.0015002 1979-Sep-05 12:00 80.52241882306 -0.0014844 1979-Sep-05 18:00 80.52241860985 -0.0014686 1979-Sep-06 00:00 80.52241839894 -0.0014527 1979-Sep-06 06:00 80.52241819032 -0.0014369 1979-Sep-06 12:00 80.52241798398 -0.0014210 1979-Sep-06 18:00 80.52241777994 -0.0014052 1979-Sep-07 00:00 80.52241757818 -0.0013893 1979-Sep-07 06:00 80.52241737872 -0.0013734 1979-Sep-07 12:00 80.52241718155 -0.0013575 1979-Sep-07 18:00 80.52241698667 -0.0013417 1979-Sep-08 00:00 80.52241679409 -0.0013258 1979-Sep-08 06:00 80.52241660380 -0.0013099 1979-Sep-08 12:00 80.52241641581 -0.0012940 1979-Sep-08 18:00 80.52241623012 -0.0012781 1979-Sep-09 00:00 80.52241604672 -0.0012621 1979-Sep-09 06:00 80.52241586562 -0.0012462 1979-Sep-09 12:00 80.52241568682 -0.0012303 1979-Sep-09 18:00 80.52241551032 -0.0012144 1979-Sep-10 00:00 80.52241533612 -0.0011984 1979-Sep-10 06:00 80.52241516422 -0.0011825 1979-Sep-10 12:00 80.52241499462 -0.0011666 1979-Sep-10 18:00 80.52241482732 -0.0011506 1979-Sep-11 00:00 80.52241466233 -0.0011347 1979-Sep-11 06:00 80.52241449964 -0.0011187 1979-Sep-11 12:00 80.52241433925 -0.0011028 1979-Sep-11 18:00 80.52241418116 -0.0010868 1979-Sep-12 00:00 80.52241402538 -0.0010709 1979-Sep-12 06:00 80.52241387191 -0.0010549 1979-Sep-12 12:00 80.52241372074 -0.0010389 1979-Sep-12 18:00 80.52241357187 -0.0010230 1979-Sep-13 00:00 80.52241342531 -0.0010070 1979-Sep-13 06:00 80.52241328106 -0.0009910 1979-Sep-13 12:00 80.52241313912 -0.0009750 1979-Sep-13 18:00 80.52241299948 -0.0009591 1979-Sep-14 00:00 80.52241286215 -0.0009431 1979-Sep-14 06:00 80.52241272713 -0.0009271 1979-Sep-14 12:00 80.52241259442 -0.0009111 1979-Sep-14 18:00 80.52241246401 -0.0008951 1979-Sep-15 00:00 80.52241233592 -0.0008791 1979-Sep-15 06:00 80.52241221013 -0.0008631 1979-Sep-15 12:00 80.52241208666 -0.0008471 1979-Sep-15 18:00 80.52241196549 -0.0008311 1979-Sep-16 00:00 80.52241184663 -0.0008151 1979-Sep-16 06:00 80.52241173009 -0.0007991 1979-Sep-16 12:00 80.52241161586 -0.0007831 1979-Sep-16 18:00 80.52241150393 -0.0007671 1979-Sep-17 00:00 80.52241139432 -0.0007511 1979-Sep-17 06:00 80.52241128702 -0.0007351 1979-Sep-17 12:00 80.52241118203 -0.0007191 1979-Sep-17 18:00 80.52241107936 -0.0007031 1979-Sep-18 00:00 80.52241097899 -0.0006871 1979-Sep-18 06:00 80.52241088094 -0.0006710 1979-Sep-18 12:00 80.52241078520 -0.0006550 1979-Sep-18 18:00 80.52241069178 -0.0006390 1979-Sep-19 00:00 80.52241060066 -0.0006230 1979-Sep-19 06:00 80.52241051186 -0.0006070 1979-Sep-19 12:00 80.52241042538 -0.0005910 1979-Sep-19 18:00 80.52241034120 -0.0005749 1979-Sep-20 00:00 80.52241025934 -0.0005589 1979-Sep-20 06:00 80.52241017980 -0.0005429 1979-Sep-20 12:00 80.52241010256 -0.0005269 1979-Sep-20 18:00 80.52241002765 -0.0005108 1979-Sep-21 00:00 80.52240995504 -0.0004948 1979-Sep-21 06:00 80.52240988475 -0.0004788 1979-Sep-21 12:00 80.52240981677 -0.0004628 1979-Sep-21 18:00 80.52240975111 -0.0004467 1979-Sep-22 00:00 80.52240968776 -0.0004307 1979-Sep-22 06:00 80.52240962673 -0.0004147 1979-Sep-22 12:00 80.52240956801 -0.0003986 1979-Sep-22 18:00 80.52240951161 -0.0003826 1979-Sep-23 00:00 80.52240945752 -0.0003666 1979-Sep-23 06:00 80.52240940575 -0.0003506 1979-Sep-23 12:00 80.52240935629 -0.0003345 1979-Sep-23 18:00 80.52240930914 -0.0003185 1979-Sep-24 00:00 80.52240926431 -0.0003025 1979-Sep-24 06:00 80.52240922180 -0.0002864 1979-Sep-24 12:00 80.52240918160 -0.0002704 1979-Sep-24 18:00 80.52240914371 -0.0002544 1979-Sep-25 00:00 80.52240910814 -0.0002383 1979-Sep-25 06:00 80.52240907489 -0.0002223 1979-Sep-25 12:00 80.52240904395 -0.0002063 1979-Sep-25 18:00 80.52240901532 -0.0001902 1979-Sep-26 00:00 80.52240898901 -0.0001742 1979-Sep-26 06:00 80.52240896502 -0.0001582 1979-Sep-26 12:00 80.52240894334 -0.0001421 1979-Sep-26 18:00 80.52240892398 -0.0001261 1979-Sep-27 00:00 80.52240890693 -0.0001101 1979-Sep-27 06:00 80.52240889219 -0.0000940 1979-Sep-27 12:00 80.52240887977 -0.0000780 1979-Sep-27 18:00 80.52240886967 -0.0000620 1979-Sep-28 00:00 80.52240886188 -0.0000459 1979-Sep-28 06:00 80.52240885641 -0.0000299 1979-Sep-28 12:00 80.52240885325 -0.0000139 1979-Sep-28 18:00 80.52240885240 0.0000022 1979-Sep-29 00:00 80.52240885387 0.0000182 1979-Sep-29 06:00 80.52240885766 0.0000342 1979-Sep-29 12:00 80.52240886376 0.0000503 1979-Sep-29 18:00 80.52240887217 0.0000663 1979-Sep-30 00:00 80.52240888290 0.0000823 1979-Sep-30 06:00 80.52240889595 0.0000984 1979-Sep-30 12:00 80.52240891131 0.0001144 1979-Sep-30 18:00 80.52240892898 0.0001304 1979-Oct-01 00:00 80.52240894897 0.0001464 1979-Oct-01 06:00 80.52240897127 0.0001625 1979-Oct-01 12:00 80.52240899589 0.0001785 1979-Oct-01 18:00 80.52240902282 0.0001945 1979-Oct-02 00:00 80.52240905206 0.0002106 1979-Oct-02 06:00 80.52240908362 0.0002266 1979-Oct-02 12:00 80.52240911749 0.0002426 1979-Oct-02 18:00 80.52240915368 0.0002586 1979-Oct-03 00:00 80.52240919218 0.0002747 1979-Oct-03 06:00 80.52240923299 0.0002907 1979-Oct-03 12:00 80.52240927612 0.0003067 1979-Oct-03 18:00 80.52240932156 0.0003227 1979-Oct-04 00:00 80.52240936932 0.0003387 1979-Oct-04 06:00 80.52240941938 0.0003548 1979-Oct-04 12:00 80.52240947176 0.0003708 1979-Oct-04 18:00 80.52240952646 0.0003868 1979-Oct-05 00:00 80.52240958346 0.0004028 1979-Oct-05 06:00 80.52240964278 0.0004188 1979-Oct-05 12:00 80.52240970441 0.0004348 1979-Oct-05 18:00 80.52240976836 0.0004509 1979-Oct-06 00:00 80.52240983461 0.0004669 1979-Oct-06 06:00 80.52240990318 0.0004829 1979-Oct-06 12:00 80.52240997406 0.0004989 1979-Oct-06 18:00 80.52241004726 0.0005149 1979-Oct-07 00:00 80.52241012276 0.0005309 1979-Oct-07 06:00 80.52241020057 0.0005469 1979-Oct-07 12:00 80.52241028070 0.0005629 1979-Oct-07 18:00 80.52241036314 0.0005789 1979-Oct-08 00:00 80.52241044789 0.0005949 1979-Oct-08 06:00 80.52241053495 0.0006110 1979-Oct-08 12:00 80.52241062432 0.0006270 1979-Oct-08 18:00 80.52241071600 0.0006430 1979-Oct-09 00:00 80.52241080999 0.0006590 1979-Oct-09 06:00 80.52241090630 0.0006750 1979-Oct-09 12:00 80.52241100491 0.0006910 1979-Oct-09 18:00 80.52241110583 0.0007070 1979-Oct-10 00:00 80.52241120906 0.0007230 1979-Oct-10 06:00 80.52241131460 0.0007389 1979-Oct-10 12:00 80.52241142245 0.0007549 1979-Oct-10 18:00 80.52241153261 0.0007709 1979-Oct-11 00:00 80.52241164508 0.0007869 1979-Oct-11 06:00 80.52241175986 0.0008029 1979-Oct-11 12:00 80.52241187694 0.0008189 1979-Oct-11 18:00 80.52241199634 0.0008349 1979-Oct-12 00:00 80.52241211804 0.0008509 1979-Oct-12 06:00 80.52241224205 0.0008668 1979-Oct-12 12:00 80.52241236836 0.0008828 1979-Oct-12 18:00 80.52241249699 0.0008988 1979-Oct-13 00:00 80.52241262792 0.0009148 1979-Oct-13 06:00 80.52241276116 0.0009308 1979-Oct-13 12:00 80.52241289670 0.0009467 1979-Oct-13 18:00 80.52241303455 0.0009627 1979-Oct-14 00:00 80.52241317471 0.0009787 1979-Oct-14 06:00 80.52241331717 0.0009947 1979-Oct-14 12:00 80.52241346194 0.0010106 1979-Oct-14 18:00 80.52241360902 0.0010266 1979-Oct-15 00:00 80.52241375840 0.0010425 1979-Oct-15 06:00 80.52241391008 0.0010585 1979-Oct-15 12:00 80.52241406407 0.0010745 1979-Oct-15 18:00 80.52241422036 0.0010904 1979-Oct-16 00:00 80.52241437896 0.0011064 1979-Oct-16 06:00 80.52241453986 0.0011223 1979-Oct-16 12:00 80.52241470306 0.0011383 1979-Oct-16 18:00 80.52241486857 0.0011542 1979-Oct-17 00:00 80.52241503638 0.0011702 1979-Oct-17 06:00 80.52241520650 0.0011861 1979-Oct-17 12:00 80.52241537891 0.0012021 1979-Oct-17 18:00 80.52241555363 0.0012180 1979-Oct-18 00:00 80.52241573065 0.0012340 1979-Oct-18 06:00 80.52241590997 0.0012499 1979-Oct-18 12:00 80.52241609159 0.0012658 1979-Oct-18 18:00 80.52241627552 0.0012818 1979-Oct-19 00:00 80.52241646174 0.0012977 1979-Oct-19 06:00 80.52241665026 0.0013136 1979-Oct-19 12:00 80.52241684109 0.0013296 1979-Oct-19 18:00 80.52241703421 0.0013455 1979-Oct-20 00:00 80.52241722963 0.0013614 1979-Oct-20 06:00 80.52241742735 0.0013773 1979-Oct-20 12:00 80.52241762737 0.0013933 1979-Oct-20 18:00 80.52241782969 0.0014092 1979-Oct-21 00:00 80.52241803431 0.0014251 1979-Oct-21 06:00 80.52241824122 0.0014410 1979-Oct-21 12:00 80.52241845043 0.0014569 1979-Oct-21 18:00 80.52241866194 0.0014728 1979-Oct-22 00:00 80.52241887574 0.0014887 1979-Oct-22 06:00 80.52241909184 0.0015046 1979-Oct-22 12:00 80.52241931024 0.0015205 1979-Oct-22 18:00 80.52241953093 0.0015364 1979-Oct-23 00:00 80.52241975392 0.0015523 1979-Oct-23 06:00 80.52241997920 0.0015682 1979-Oct-23 12:00 80.52242020677 0.0015841 1979-Oct-23 18:00 80.52242043664 0.0016000 1979-Oct-24 00:00 80.52242066880 0.0016159 1979-Oct-24 06:00 80.52242090326 0.0016317 1979-Oct-24 12:00 80.52242114000 0.0016476 1979-Oct-24 18:00 80.52242137904 0.0016635 1979-Oct-25 00:00 80.52242162038 0.0016794 1979-Oct-25 06:00 80.52242186400 0.0016952 1979-Oct-25 12:00 80.52242210991 0.0017111 1979-Oct-25 18:00 80.52242235812 0.0017270 1979-Oct-26 00:00 80.52242260861 0.0017428 1979-Oct-26 06:00 80.52242286140 0.0017587 1979-Oct-26 12:00 80.52242311647 0.0017745 1979-Oct-26 18:00 80.52242337383 0.0017904 1979-Oct-27 00:00 80.52242363348 0.0018062 1979-Oct-27 06:00 80.52242389542 0.0018221 1979-Oct-27 12:00 80.52242415965 0.0018379 1979-Oct-27 18:00 80.52242442616 0.0018538 1979-Oct-28 00:00 80.52242469496 0.0018696 1979-Oct-28 06:00 80.52242496604 0.0018854 1979-Oct-28 12:00 80.52242523942 0.0019013 1979-Oct-28 18:00 80.52242551507 0.0019171 1979-Oct-29 00:00 80.52242579301 0.0019329 1979-Oct-29 06:00 80.52242607324 0.0019487 1979-Oct-29 12:00 80.52242635575 0.0019645 1979-Oct-29 18:00 80.52242664054 0.0019804 1979-Oct-30 00:00 80.52242692761 0.0019962 1979-Oct-30 06:00 80.52242721697 0.0020120 1979-Oct-30 12:00 80.52242750861 0.0020278 1979-Oct-30 18:00 80.52242780253 0.0020436 1979-Oct-31 00:00 80.52242809873 0.0020594 $$EOE ******************************************************************************* Column meaning: TIME Times PRIOR to 1962 are UT1, a mean-solar time closely related to the prior but now-deprecated GMT. Times AFTER 1962 are in UTC, the current civil or "wall-clock" time-scale. UTC is kept within 0.9 seconds of UT1 using integer leap-seconds for 1972 and later years. Conversion from the internal Barycentric Dynamical Time (TDB) of solar system dynamics to the non-uniform civil UT time-scale requested for output has not been determined for UTC times after the next July or January 1st. Therefore, the last known leap-second is used as a constant over future intervals. Time tags refer to the UT time-scale conversion from TDB on Earth regardless of observer location within the solar system, although clock rates may differ due to the local gravity field and no analog to "UT" may be defined for that location. Any 'b' symbol in the 1st-column denotes a B.C. date. First-column blank (" ") denotes an A.D. date. CALENDAR SYSTEM Mixed calendar mode was active such that calendar dates after AD 1582-Oct-15 (if any) are in the modern Gregorian system. Dates prior to 1582-Oct-5 (if any) are in the Julian calendar system, which is automatically extended for dates prior to its adoption on 45-Jan-1 BC. The Julian calendar is useful for matching historical dates. The Gregorian calendar more accurately corresponds to the Earth's orbital motion and seasons. A "Gregorian-only" calendar mode is available if such physical events are the primary interest. NOTE: "n.a." in output means quantity "not available" at the print-time. 'r rdot' = The Sun's apparent range ("r", light-time aberrated) and range-rate ("rdot") relative to the target center, as seen by the observer. A positive "rdot" means the target center was moving away from the Sun, negative means moving toward the Sun. Units: AU and KM/S Computations by ... Solar System Dynamics Group, Horizons On-Line Ephemeris System 4800 Oak Grove Drive, Jet Propulsion Laboratory Pasadena, CA 91109 USA General site: https://ssd.jpl.nasa.gov/ Mailing list: https://ssd.jpl.nasa.gov/email_list.html System news : https://ssd.jpl.nasa.gov/horizons/news.html User Guide : https://ssd.jpl.nasa.gov/horizons/manual.html Connect : browser https://ssd.jpl.nasa.gov/horizons/app.html#/x API https://ssd-api.jpl.nasa.gov/doc/horizons.html command-line telnet ssd.jpl.nasa.gov 6775 e-mail/batch https://ssd.jpl.nasa.gov/ftp/ssd/hrzn_batch.txt scripts https://ssd.jpl.nasa.gov/ftp/ssd/SCRIPTS Author : Jon.D.Giorgini@jpl.nasa.gov ******************************************************************************* !$$SOF COMMAND = '2012 VP113' START_TIME = '1979-Sep-01' STOP_TIME = '1979-Oct-31' STEP_SIZE = '6 hours' QUANTITIES = '19'